Regional Weather Roundup
Issued by NWS

Home | Current Version | Previous Version | Graphics & Text | Print | Product List | Glossary On
Versions: 1 2 3 4 5 6 7 8 9 10 11 12 13 14 15 16 17 18 19 20 21 22 23 24 25 26 27 28 29 30 31 32 33 34 35 36 37 38 39 40 41 42 43 44 45 46 47 48 49 50
470
ASUS43 KLOT 250208
RWRIL

ILLINOIS REGIONAL WEATHER ROUNDUP
NATIONAL WEATHER SERVICE CHICAGO/ROMEOVILLE IL
900 PM CDT SAT SEP 24 2016

NOTE: "FAIR" INDICATES FEW OR NO CLOUDS BELOW 12,000 FEET WITH NO
SIGNIFICANT WEATHER AND/OR OBSTRUCTIONS TO VISIBILITY.

* THESE STATIONS ARE NOT UNDER NWS QUALITY CONTROL. THEY ALSO MAY NOT
  REPORT WEATHER SUCH AS PRECIPITATION OR FOG.

ILZ001-002-007-009-015-016-024-250300-
NORTHWEST ILLINOIS

CITY           SKY/WX    TMP DP  RH WIND       PRES   REMARKS
MOLINE         CLEAR     73  67  81 E9        30.05R
STERLING*      CLEAR     69  66  90 E7        30.09R
SAVANNA*       CLEAR     70  65  86 E7        30.08R
$$

ILZ003-004-008-010-011-017-018-250300-
NORTH CENTRAL ILLINOIS

CITY           SKY/WX    TMP DP  RH WIND       PRES   REMARKS
ROCKFORD       CLEAR     67  62  84 E8        30.13R
FREEPORT*      CLEAR     64  62  94 NE5       30.14R
ROCHELLE*      CLEAR     67  64  88 E7        30.12R
DE KALB*       CLEAR     65  63  91 E9        30.14R
$$

ILZ005-006-012>014-019>023-250300-
NORTHEAST ILLINOIS

CITY           SKY/WX    TMP DP  RH WIND       PRES   REMARKS
CHICAGO-OHARE  CLEAR     68  63  84 NE5       30.13R
CHICAGO-MIDWAY CLEAR     72  64  76 NE8       30.12R
AURORA         CLEAR     68  63  84 NE6       30.13R
LANSING*       CLEAR     70  67  90 E3        30.12R
JOLIET*        CLEAR     70  65  84 NE6       30.12R
WAUKEGAN       CLEAR     67  63  87 E5        30.14R
DUPAGE AIRPORT CLEAR     66  62  87 NE5       30.13R
KANKAKEE*      CLEAR     69  65  86 E6        30.12R
WHEELING       CLEAR     67  63  87 E5        30.14S
MORRIS*        CLEAR     68  64  85 CALM      30.10R
ROMEOVILLE*    CLEAR     67  65  94 E7        30.12R
NORTHERLY ISL    N/A     70  65  84 E10         N/A
$$

LMZ740>746-250300-
SOUTHERN LAKE MICHIGAN

STATION/POSITION SKY/WX   TEMP    WIND        PRES    VSBY  WAVE
                          AIR SEA DIR/SP/G                  HT/PER
                          (F)     (DEG/KT/KT) (MB)    (MI)  (FT/S)
SOUTHERN BUOY              70 72  100/ 16/ 19 1020.3R         2/ 4
WILMETTE HARBOR            69 65  110/  8/ 12   N/A           3/ 4
HARRISON CRIB              72      80/ 15/ 16   N/A
BURNHAM HARBOR             70      70/ 10/ 10   N/A
CALUMET HARBOR             70      50/  6/  8 1019.2S
BURNS HARBOR               67      90/  7/ 10 1020.3R
MICHIGAN CITY              70      50/  7/  8   N/A
MICHIGAN CITY 6N           69 71   90/  8/ 10   N/A           1/ 3
ST. JOSEPH                 69 71   80/ 10/ 14 1020.8R         1
$$

ILZ025>027-034>036-040-047-049-050-058-095>099-250300-
WEST-CENTRAL ILLINOIS

CITY           SKY/WX    TMP DP  RH WIND       PRES   REMARKS
QUINCY         CLEAR     76  66  71 SE6       30.03R
GALESBURG*     CLEAR     75  67  76 E7        30.06
MACOMB*        CLEAR     71  66  82 E5        30.06S
JACKSONVILLE*  CLEAR     74  65  74 CALM      30.05R
PITTSFIELD*    CLEAR     73  67  84 CALM      30.06R
$$

ILZ028>032-037-038-041>044-048-051>054-059>061-250300-
CENTRAL ILLINOIS

CITY           SKY/WX    TMP DP  RH WIND       PRES   REMARKS
PONTIAC        CLEAR     76  69  79 E9        30.10R
BLOOMINGTON    CLEAR     74  67  78 E6        30.09R
DECATUR        CLEAR     71  63  75 NE3       30.06R
PEORIA         MOCLDY    78  68  71 E9        30.06R HX  80
LACON*         CLEAR     73  66  77 E7        30.07R
LINCOLN*       CLEAR     75  64  69 CALM      30.05R
SPRINGFIELD    CLEAR     76  64  66 S5        30.04R
TAYLORVILLE    CLEAR     71  65  81 CALM      30.05R
$$

ILZ033-039-045-046-055>057-062-063-250300-
EAST-CENTRAL ILLINOIS

CITY           SKY/WX    TMP DP  RH WIND       PRES   REMARKS
CHAMPAIGN      CLEAR     73  67  81 E6        30.08R
RANTOUL*       MOCLDY    76  69  77 E10       30.09R HAZE
MATTOON        CLEAR     73  65  75 SE5       30.06R
PARIS*         CLEAR     73  69  88 CALM      30.09R
$$

ILZ079-100>102-250300-
SOUTHWEST ILLINOIS

CITY           SKY/WX    TMP DP  RH WIND       PRES   REMARKS
ALTON          CLEAR     73  68  83 CALM      30.03R
BELLEVILLE     CLEAR     74  69  84 VRB1      30.02R
CAHOKIA*       CLEAR     73  68  84 CALM      30.02R
SPARTA*        CLEAR     74  70  86 CALM      30.04S
$$

ILZ064>066-069>071-074>076-080>082-084>086-088>090-092>094-250300-
SOUTH-CENTRAL ILLINOIS

CITY           SKY/WX    TMP DP  RH WIND       PRES   REMARKS
CARBONDALE     CLEAR     73  71  93 CALM      30.04R
CAIRO*         CLEAR     74  70  87 E5        30.03R
EFFINGHAM*     CLEAR     71  71 100 CALM      30.07R
MARION         CLEAR     75  72  88 E5        30.05R
MT. VERNON     CLEAR     70  64  83 CALM      30.06R
CENTRALIA*     CLEAR     71  70  98 CALM      30.04S
SALEM*         CLEAR     74  69  83 CALM      30.05S
METROPOLIS*    CLEAR     74  71  91 CALM      30.05R
$$

ILZ067-068-072-073-078-083-087-091-250300-
SOUTHEAST ILLINOIS

CITY           SKY/WX    TMP DP  RH WIND       PRES   REMARKS
LAWRENCEVILLE  CLEAR     75  67  76 NE5       30.07R
FLORA*         CLEAR     72  68  87 CALM      30.05S
FAIRFIELD*       N/A     71  70  95 CALM      30.04S
HARRISBURG*    CLEAR     73  71  92 CALM      30.05R
ROBINSON*      CLEAR     72  68  87 E5        30.08R
CARMI*         CLEAR     71  69  94 CALM      30.05R
$$

ABBREVIATIONS USED IN REMARKS
   TC - TEMPERATURE IN CELSIUS
  WCI - WIND CHILL INDEX
   HX - HEAT INDEX
  VSB - VISIBILITY
$$





USA.gov is the U.S. government's official web portal to all federal, state and local government web resources and services.